When you browse on this site, cookies collect data to enhance your experience and personalize the content and advertising you see.
Visit our Privacy Policy to learn more. By continuing to use the site, you agree to this use of cookies and data.
  • In Österreich
  • Länderverzeichnis
  • Für 7 Tage
  • Wassertemperatur
  • Wetterkarte
  • News
  • Widgets
  • user-avatar
    Anmelden

    Stündliche Wetter Przemyśl

    Heute, 5 Juni, Freitag

    Zeit Temperatur Niederschläge Wind Luftdruck Luftfeuchtigkeit
    00:00 +14°C° 0.1 mm 3 m/S 731 mmHg 93%
    01:00 +14°C° 0.1 mm 3 m/S 731 mmHg 93%
    02:00 +16°C° 0.1 mm 3 m/S 731 mmHg 93%
    03:00 +15°C° 0 mm 4 m/S 730 mmHg 91%
    04:00 +15°C° 0 mm 5 m/S 730 mmHg 90%
    05:00 +15°C° 0 mm 6 m/S 730 mmHg 89%
    06:00 +15°C° 0 mm 6 m/S 730 mmHg 85%
    07:00 +16°C° 0 mm 6 m/S 730 mmHg 81%
    08:00 +17°C° 0 mm 6 m/S 730 mmHg 77%
    09:00 +17°C° 0 mm 6 m/S 731 mmHg 75%
    10:00 +19°C° 0 mm 6 m/S 731 mmHg 74%
    11:00 +20°C° 0 mm 6 m/S 731 mmHg 72%
    12:00 +20°C° 0 mm 7 m/S 731 mmHg 71%
    13:00 +21°C° 0 mm 7 m/S 732 mmHg 69%
    14:00 +22°C° 0 mm 8 m/S 732 mmHg 68%
    15:00 +21°C° 0 mm 7 m/S 732 mmHg 69%
    16:00 +21°C° 0 mm 7 m/S 732 mmHg 69%
    17:00 +21°C° 0 mm 7 m/S 732 mmHg 69%
    18:00 +20°C° 0 mm 6 m/S 732 mmHg 73%
    19:00 +19°C° 0 mm 6 m/S 732 mmHg 76%
    20:00 +17°C° 0 mm 5 m/S 732 mmHg 80%
    21:00 +17°C° 0.2 mm 6 m/S 732 mmHg 82%
    22:00 +17°C° 0.2 mm 6 m/S 733 mmHg 84%
    23:00 +17°C° 0.2 mm 6 m/S 733 mmHg 86%

    Morgen, 6 Juni, Samstag

    Zeit Temperatur Niederschläge Wind Luftdruck Luftfeuchtigkeit
    00:00 +17°C° 0.3 mm 4 m/S 734 mmHg 89%
    01:00 +16°C° 0.3 mm 3 m/S 734 mmHg 91%
    02:00 +16°C° 0.3 mm 1 m/S 734 mmHg 94%
    03:00 +15°C° 0.1 mm 2 m/S 735 mmHg 94%
    04:00 +15°C° 0.1 mm 2 m/S 735 mmHg 95%
    05:00 +15°C° 0.1 mm 2 m/S 736 mmHg 95%
    06:00 +16°C° 0 mm 3 m/S 737 mmHg 90%
    07:00 +18°C° 0 mm 3 m/S 737 mmHg 86%
    08:00 +19°C° 0 mm 3 m/S 738 mmHg 81%
    09:00 +20°C° 0 mm 3 m/S 738 mmHg 72%
    10:00 +23°C° 0 mm 2 m/S 739 mmHg 63%
    11:00 +24°C° 0 mm 1 m/S 739 mmHg 55%
    12:00 +24°C° 0 mm 2 m/S 739 mmHg 56%
    13:00 +24°C° 0 mm 2 m/S 739 mmHg 57%
    14:00 +25°C° 0 mm 3 m/S 739 mmHg 59%
    15:00 +24°C° 0.3 mm 3 m/S 739 mmHg 64%
    16:00 +24°C° 0.3 mm 3 m/S 739 mmHg 69%
    17:00 +24°C° 0.3 mm 2 m/S 739 mmHg 74%
    18:00 +22°C° 0.4 mm 3 m/S 738 mmHg 80%
    19:00 +20°C° 0.4 mm 3 m/S 738 mmHg 85%
    20:00 +19°C° 0.4 mm 3 m/S 738 mmHg 90%
    21:00 +18°C° 0.2 mm 2 m/S 738 mmHg 92%
    22:00 +18°C° 0.2 mm 2 m/S 738 mmHg 93%
    23:00 +17°C° 0.2 mm 2 m/S 738 mmHg 95%

    übermorgen, 7 Juni, Sonntag

    Zeit Temperatur Niederschläge Wind Luftdruck Luftfeuchtigkeit
    00:00 +17°C° 0 mm 2 m/S 738 mmHg 95%
    01:00 +16°C° 0 mm 2 m/S 738 mmHg 95%
    02:00 +16°C° 0 mm 1 m/S 738 mmHg 95%
    03:00 +16°C° 0.1 mm 1 m/S 738 mmHg 94%
    04:00 +16°C° 0.1 mm 1 m/S 737 mmHg 93%
    05:00 +16°C° 0.1 mm 1 m/S 737 mmHg 92%
    06:00 +19°C° 0.1 mm 1 m/S 737 mmHg 89%
    07:00 +20°C° 0.1 mm 1 m/S 737 mmHg 85%
    08:00 +22°C° 0.1 mm 1 m/S 737 mmHg 81%
    09:00 +24°C° 0 mm 1 m/S 738 mmHg 74%
    10:00 +25°C° 0 mm 2 m/S 738 mmHg 66%
    11:00 +27°C° 0 mm 2 m/S 738 mmHg 59%
    12:00 +28°C° 0.4 mm 2 m/S 738 mmHg 58%
    13:00 +28°C° 0.4 mm 3 m/S 738 mmHg 58%
    14:00 +29°C° 0.4 mm 3 m/S 738 mmHg 58%
    15:00 +28°C° 0.6 mm 3 m/S 738 mmHg 60%
    16:00 +28°C° 0.6 mm 2 m/S 738 mmHg 62%
    17:00 +28°C° 0.6 mm 2 m/S 738 mmHg 65%
    18:00 +26°C° 0.5 mm 2 m/S 738 mmHg 71%
    19:00 +24°C° 0.5 mm 2 m/S 738 mmHg 78%
    20:00 +21°C° 0.5 mm 2 m/S 738 mmHg 84%
    21:00 +20°C° 0.5 mm 2 m/S 739 mmHg 84%
    22:00 +20°C° 0.5 mm 2 m/S 739 mmHg 85%
    23:00 +19°C° 0.5 mm 2 m/S 739 mmHg 85%

    8 Juni, Montag

    Zeit Temperatur Niederschläge Wind Luftdruck Luftfeuchtigkeit
    00:00 +19°C° 0 mm 2 m/S 739 mmHg 86%
    01:00 +18°C° 0 mm 2 m/S 739 mmHg 86%
    02:00 +17°C° 0 mm 2 m/S 739 mmHg 87%
    03:00 +17°C° 0 mm 2 m/S 739 mmHg 88%
    04:00 +16°C° 0 mm 2 m/S 738 mmHg 89%
    05:00 +16°C° 0 mm 2 m/S 738 mmHg 90%
    06:00 +17°C° 0 mm 2 m/S 738 mmHg 85%
    07:00 +20°C° 0 mm 1 m/S 739 mmHg 81%
    08:00 +22°C° 0 mm 1 m/S 739 mmHg 76%
    09:00 +23°C° 0 mm 2 m/S 739 mmHg 72%
    10:00 +25°C° 0 mm 2 m/S 739 mmHg 69%
    11:00 +26°C° 0 mm 3 m/S 739 mmHg 65%
    12:00 +26°C° 0.5 mm 3 m/S 738 mmHg 66%
    13:00 +27°C° 0.5 mm 3 m/S 738 mmHg 66%
    14:00 +27°C° 0.5 mm 4 m/S 738 mmHg 67%
    15:00 +27°C° 0.8 mm 4 m/S 738 mmHg 69%
    16:00 +26°C° 0.8 mm 4 m/S 737 mmHg 72%
    17:00 +26°C° 0.8 mm 3 m/S 737 mmHg 74%
    18:00 +24°C° 0.4 mm 3 m/S 737 mmHg 78%
    19:00 +23°C° 0.4 mm 2 m/S 738 mmHg 83%
    20:00 +20°C° 0.4 mm 2 m/S 738 mmHg 87%
    21:00 +19°C° 0 mm 2 m/S 738 mmHg 88%
    22:00 +19°C° 0 mm 2 m/S 738 mmHg 89%
    23:00 +18°C° 0 mm 2 m/S 738 mmHg 89%

    9 Juni, Dienstag

    Zeit Temperatur Niederschläge Wind Luftdruck Luftfeuchtigkeit
    00:00 +18°C° 0 mm 2 m/S 738 mmHg 92%
    01:00 +17°C° 0 mm 2 m/S 738 mmHg 94%
    02:00 +17°C° 0 mm 2 m/S 738 mmHg 96%
    03:00 +17°C° 0 mm 2 m/S 738 mmHg 96%
    04:00 +17°C° 0 mm 2 m/S 739 mmHg 96%
    05:00 +17°C° 0 mm 2 m/S 739 mmHg 97%
    06:00 +17°C° 0 mm 2 m/S 739 mmHg 96%
    07:00 +18°C° 0 mm 2 m/S 739 mmHg 95%
    08:00 +18°C° 0 mm 2 m/S 739 mmHg 94%
    09:00 +18°C° 0 mm 2 m/S 740 mmHg 91%
    10:00 +19°C° 0 mm 2 m/S 740 mmHg 89%
    11:00 +19°C° 0 mm 2 m/S 740 mmHg 87%
    12:00 +20°C° 0 mm 2 m/S 740 mmHg 85%
    13:00 +21°C° 0 mm 2 m/S 740 mmHg 83%
    14:00 +21°C° 0 mm 2 m/S 740 mmHg 80%
    15:00 +21°C° 0 mm 2 m/S 740 mmHg 81%
    16:00 +22°C° 0 mm 1 m/S 740 mmHg 81%
    17:00 +22°C° 0 mm 1 m/S 740 mmHg 82%
    18:00 +22°C° 0 mm 1 m/S 740 mmHg 85%
    19:00 +21°C° 0 mm 1 m/S 740 mmHg 89%
    20:00 +20°C° 0 mm 1 m/S 740 mmHg 93%
    21:00 +19°C° 0.5 mm 1 m/S 740 mmHg 94%
    22:00 +19°C° 0.5 mm 1 m/S 740 mmHg 95%
    23:00 +18°C° 0.5 mm 1 m/S 740 mmHg 96%

    10 Juni, Mittwoch

    Zeit Temperatur Niederschläge Wind Luftdruck Luftfeuchtigkeit
    00:00 +16°C° 0 mm 0 m/S 740 mmHg 96%
    01:00 +15°C° 0 mm 0 m/S 740 mmHg 96%
    02:00 +15°C° 0 mm 0 m/S 740 mmHg 96%
    03:00 +15°C° 0 mm 0 m/S 740 mmHg 97%
    04:00 +15°C° 0 mm 0 m/S 740 mmHg 97%
    05:00 +15°C° 0 mm 0 m/S 741 mmHg 97%
    06:00 +17°C° 0 mm 0 m/S 741 mmHg 94%
    07:00 +18°C° 0 mm 0 m/S 741 mmHg 91%
    08:00 +20°C° 0 mm 0 m/S 741 mmHg 88%
    09:00 +21°C° 0.6 mm 0 m/S 741 mmHg 85%
    10:00 +24°C° 0.6 mm 1 m/S 741 mmHg 82%
    11:00 +25°C° 0.6 mm 1 m/S 742 mmHg 79%
    12:00 +26°C° 0.9 mm 1 m/S 741 mmHg 74%
    13:00 +27°C° 0.9 mm 1 m/S 741 mmHg 68%
    14:00 +26°C° 0.9 mm 0 m/S 741 mmHg 62%
    15:00 +28°C° 0.3 mm 1 m/S 741 mmHg 62%
    16:00 +28°C° 0.3 mm 1 m/S 741 mmHg 62%
    17:00 +28°C° 0.3 mm 1 m/S 741 mmHg 62%
    18:00 +26°C° 0.4 mm 1 m/S 741 mmHg 70%
    19:00 +24°C° 0.4 mm 1 m/S 741 mmHg 77%
    20:00 +22°C° 0.4 mm 1 m/S 742 mmHg 85%
    21:00 +21°C° 0 mm 1 m/S 742 mmHg 88%
    22:00 +19°C° 0 mm 2 m/S 742 mmHg 92%
    23:00 +18°C° 0 mm 2 m/S 742 mmHg 95%
    Mehr zeigen